Moffett NAS, CA

3:11 PM PST on November 23, 2017 (GMT -0800)
Moffett Federal Air Field

Weather History for KNUQ - December, 2012

Change the Weather History Date:

Monday, December 17, 2012

  Actual Average Record
Temperature  
Mean Temperature 53 °F 51 °F  
Max Temperature 58 °F 59 °F 70 °F (1998)
Min Temperature 48 °F 43 °F 29 °F (1965)
Degree Days  
Heating Degree Days 12    
Month to date heating degree days 201  
Since 1 July heating degree days 531  
Cooling Degree Days 0    
Month to date cooling degree days 0  
Year to date cooling degree days 321  
Growing Degree Days 2 (Base 50)    
Moisture  
Dew Point 49 °F    
Average Humidity 76    
Maximum Humidity 86    
Minimum Humidity 66    
Precipitation  
Precipitation 0.13 in 0.09 in 0.88 in (1977)
Month to date precipitation 1.66 1.25  
Year to date precipitation 10.66 13.37  
Since 1 July precipitation 5.15  
Sea Level Pressure  
Sea Level Pressure 30.05 in    
Wind  
Wind Speed 7 mph (South)    
Max Wind Speed 16 mph    
Max Gust Speed 21 mph    
Visibility 8 miles    
Events Rain    
T = Trace of Precipitation, MM = Missing Value Source: NWS Daily Summary

Daily Weather History Graph

Daily Weather History Graph

Search for Another Location

Airport or City:

Trip Planner

Search our weather history database for the weather conditions in past years. The results will help you decide how hot, cold, wet, or windy it might be!

Date:

Astronomy

Dec. 17, 2012 Rise Set
Actual Time 7:17 AM PST 4:52 PM PST
Civil Twilight 6:47 AM PST 5:21 PM PST
Nautical Twilight 6:14 AM PST 5:54 PM PST
Astronomical Twilight 5:43 AM PST 6:26 PM PST
Moon 10:33 AM PST (12/17) 10:13 PM PST (12/17)
Length of Visible Light 10h 33m
Length of Day
9h 35m
Waxing Crescent, 26% of the Moon is Illuminated
Dec 17
Waxing Crescent
Dec 19
First Quarter
Dec 28
Full
Jan 4
Last Quarter
Jan 11
New

Hourly Weather History & Observations

Time (PST) Temp. Dew Point Humidity Pressure Visibility Wind Dir Wind Speed Gust Speed Precip Events Conditions
12:56 AM 57.9 °F 46.0 °F 65% 30.06 in 10.0 mi SSE 8.1 mph 17.3 mph N/A   Overcast
1:56 AM 55.9 °F 48.0 °F 75% 30.06 in 10.0 mi SE 11.5 mph 17.3 mph N/A   Overcast
2:56 AM 55.9 °F 50.0 °F 80% 30.06 in 10.0 mi SE 12.7 mph 19.6 mph N/A   Overcast
3:56 AM 55.0 °F 48.9 °F 80% 30.04 in 10.0 mi SE 12.7 mph - 0.00 in   Overcast
4:56 AM 55.9 °F 50.0 °F 80% 30.04 in 10.0 mi SE 11.5 mph - N/A   Overcast
5:53 AM 55.4 °F 51.8 °F 88% 30.04 in 10.0 mi SE 6.9 mph - 0.00 in   Overcast
5:56 AM 55.0 °F 51.1 °F 86% 30.05 in 10.0 mi SSE 6.9 mph - 0.00 in   Overcast
6:56 AM 55.0 °F 51.1 °F 86% 30.06 in 9.0 mi SSE 8.1 mph - 0.01 in Rain Light Rain
7:18 AM 55.4 °F 51.8 °F 88% 30.05 in 10.0 mi SE 6.9 mph - 0.00 in   Overcast
7:34 AM 55.4 °F 51.8 °F 88% 30.05 in 10.0 mi SE 6.9 mph - 0.00 in   Overcast
7:56 AM 55.0 °F 52.0 °F 89% 30.06 in 10.0 mi SE 8.1 mph - 0.00 in   Overcast
8:33 AM 55.4 °F 51.8 °F 88% 30.06 in 2.5 mi SSE 4.6 mph - 0.01 in Rain Light Rain
8:56 AM 55.0 °F 53.1 °F 93% 30.07 in 4.0 mi SE 6.9 mph - 0.02 in Rain Light Rain
9:41 AM 57.2 °F 53.6 °F 88% 30.09 in 1.8 mi NW 10.4 mph - 0.04 in Rain Rain
9:49 AM 53.6 °F 51.8 °F 94% 30.09 in 1.2 mi NNW 10.4 mph 20.7 mph 0.08 in Rain Rain
9:56 AM 54.0 °F 52.0 °F 93% 30.10 in 1.8 mi NNW 8.1 mph - 0.09 in Rain Rain
10:01 AM 53.6 °F 51.8 °F 94% 30.10 in 3.0 mi NNW 5.8 mph - 0.00 in Rain Light Rain
10:56 AM 55.0 °F 54.0 °F 96% 30.09 in 10.0 mi West 3.5 mph - 0.01 in   Overcast
11:56 AM 57.0 °F 52.0 °F 83% 30.07 in 7.0 mi Calm Calm - 0.00 in Rain Light Rain
12:56 PM 57.9 °F 51.1 °F 78% 30.05 in 10.0 mi ENE 5.8 mph - 0.00 in   Overcast
1:37 PM 57.2 °F 51.8 °F 82% 30.02 in 10.0 mi NE 6.9 mph - N/A   Overcast
1:56 PM 57.9 °F 50.0 °F 75% 30.02 in 10.0 mi ENE 4.6 mph - N/A   Overcast
4:56 PM 55.9 °F 48.0 °F 75% 30.00 in 10.0 mi NW 8.1 mph - 0.00 in Rain Light Rain
5:56 PM 54.0 °F 48.0 °F 80% 30.01 in 10.0 mi WNW 3.5 mph - 0.00 in   Mostly Cloudy
6:56 PM 54.0 °F 44.1 °F 69% 30.02 in 10.0 mi West 5.8 mph - N/A   Overcast
7:56 PM 53.1 °F 43.0 °F 69% 30.03 in 10.0 mi West 6.9 mph - N/A   Overcast
8:56 PM 51.1 °F 43.0 °F 74% 30.04 in 10.0 mi WSW 3.5 mph - N/A   Partly Cloudy
9:56 PM 50.0 °F 42.1 °F 74% 30.03 in 10.0 mi WSW 6.9 mph - N/A   Clear
10:56 PM 48.9 °F 42.1 °F 77% 30.04 in 10.0 mi WSW 4.6 mph - N/A   Clear
11:56 PM 48.0 °F 41.0 °F 77% 30.03 in 10.0 mi WSW 3.5 mph - N/A   Clear